Weather History for KTHV - August, 2013

Change the Weather History Date:

Friday, August 2, 2013

  Actual Average Record
Temperature  
Mean Temperature 72 °F -  
Max Temperature 82 °F 90 °F 99 °F (2002)
Min Temperature 61 °F 58 °F 48 °F (1998)
Cooling Degree Days 6    
Growing Degree Days 22 (Base 50)    
Moisture  
Dew Point 60 °F    
Average Humidity 70    
Maximum Humidity 94    
Minimum Humidity 38    
Precipitation  
Precipitation 0.01 in - - ()
Sea Level Pressure  
Sea Level Pressure 29.92 in    
Wind  
Wind Speed 2 mph (West)    
Max Wind Speed 9 mph    
Max Gust Speed 16 mph    
Visibility 9 miles    
Events      
Averages and records for this station are not official NWS values.
T = Trace of Precipitation, MM = Missing Value Source: NWS Daily Summary

Daily Weather History Graph

Daily Weather History Graph

Search for Another Location

Airport or City:

Trip Planner

Search our weather history database for the weather conditions in past years. The results will help you decide how hot, cold, wet, or windy it might be!

Date:

Astronomy

Aug. 02, 2013 Rise Set
Actual Time 6:07 AM EDT 8:19 PM EDT
Civil Twilight 5:37 AM EDT 8:49 PM EDT
Nautical Twilight 4:59 AM EDT 9:26 PM EDT
Astronomical Twilight 4:19 AM EDT 10:06 PM EDT
Moon 2:26 AM EDT 5:15 PM EDT
Length of Visible Light 15h 12m
Length of Day
14h 12m
Waning Crescent, 16% of the Moon is Illuminated
Aug 2
Waning Crescent
Aug 6
New
Aug 14
First Quarter
Aug 20
Full
Aug 28
Last Quarter

Hourly Weather History & Observations

Time (EDT) Temp. Heat Index Dew Point Humidity Pressure Visibility Wind Dir Wind Speed Gust Speed Precip Events Conditions
12:03 AM 66.2 °F - 64.4 °F 94% 29.87 in 2.5 mi Calm Calm - N/A   Clear
12:13 AM 66.2 °F - 64.4 °F 94% 29.87 in 4.0 mi Calm Calm - N/A   Clear
12:53 AM 66.0 °F - 63.0 °F 90% 29.87 in 4.0 mi West 3.5 mph - N/A   Clear
1:53 AM 66.0 °F - 63.0 °F 90% 29.87 in 9.0 mi Calm Calm - N/A   Clear
2:53 AM 63.0 °F - 60.1 °F 90% 29.86 in 7.0 mi Calm Calm - N/A   Clear
3:53 AM 61.0 °F - 57.9 °F 90% 29.87 in 9.0 mi Calm Calm - 0.01 in   Clear
4:53 AM 61.0 °F - 57.0 °F 87% 29.89 in 8.0 mi West 3.5 mph - N/A   Partly Cloudy
5:53 AM 61.0 °F - 57.0 °F 87% 29.91 in 10.0 mi Calm Calm - N/A   Clear
6:53 AM 62.1 °F - 57.9 °F 86% 29.92 in 7.0 mi Calm Calm - N/A   Clear
7:53 AM 68.0 °F - 62.1 °F 81% 29.94 in 10.0 mi Calm Calm - N/A   Clear
8:53 AM 71.1 °F - 62.1 °F 73% 29.96 in 10.0 mi WNW 4.6 mph - N/A   Clear
9:53 AM 75.0 °F - 60.1 °F 60% 29.96 in 10.0 mi WNW 3.5 mph - N/A   Clear
10:53 AM 77.0 °F - 59.0 °F 54% 29.95 in 10.0 mi Calm Calm - N/A   Clear
11:53 AM 79.0 °F - 60.1 °F 52% 29.96 in 10.0 mi West 5.8 mph - N/A   Partly Cloudy
12:53 PM 80.1 °F 80.7 °F 59.0 °F 48% 29.94 in 10.0 mi SSW 9.2 mph - N/A   Scattered Clouds
1:53 PM 80.1 °F 80.7 °F 59.0 °F 48% 29.94 in 10.0 mi WSW 6.9 mph - N/A   Mostly Cloudy
2:53 PM 80.1 °F 80.7 °F 59.0 °F 48% 29.94 in 10.0 mi West 8.1 mph 16.1 mph N/A   Mostly Cloudy
3:53 PM 82.0 °F 82.4 °F 60.1 °F 47% 29.94 in 10.0 mi Variable 6.9 mph - N/A   Partly Cloudy
4:53 PM 82.0 °F 81.3 °F 54.0 °F 38% 29.93 in 10.0 mi West 8.1 mph - N/A   Clear
5:53 PM 80.1 °F 80.1 °F 55.0 °F 42% 29.92 in 10.0 mi Variable 5.8 mph - N/A   Clear
6:53 PM 79.0 °F - 55.9 °F 45% 29.91 in 10.0 mi WSW 3.5 mph - N/A   Clear
7:53 PM 75.0 °F - 57.9 °F 55% 29.93 in 10.0 mi WSW 3.5 mph - N/A   Mostly Cloudy
8:53 PM 68.0 °F - 61.0 °F 78% 29.94 in 10.0 mi West 3.5 mph - N/A   Clear
9:53 PM 66.0 °F - 61.0 °F 84% 29.96 in 10.0 mi Calm Calm - N/A   Clear
10:53 PM 64.0 °F - 59.0 °F 84% 29.96 in 10.0 mi Calm Calm - N/A   Clear
11:53 PM 64.0 °F - 59.0 °F 84% 29.96 in 10.0 mi Calm Calm - N/A   Clear